Location: St. Louis
(38.6270°N, 90.1994°W)
Time: 20:01:01
(UTC-06:00)

Vanguard 3 - Pass Details

Date: 07 December 2021
Orbit: 508 x 3260 km, 33.3° (Epoch: 19 January)

Event Time Altitude Azimuth Distance (km) Brightness Sun altitude
Exits shadow 01:06:09 30° 107° (ESE) 4,700 10.9 -67.5°
Drops below altitude 10° 01:15:42 10° 84° (E) 6,066 11.8 -66.1°
Sets 01:20:34 0° 77° (ENE) 6,903 12.2 -65.3°
